Regional Weather Roundup
Issued by NWS

Home | Current Version | Previous Version | Text Only | Print | Product List | Glossary On
Versions: 1 2 3 4 5 6 7 8 9 10 11 12 13 14 15 16 17 18 19 20 21 22 23 24 25 26 27 28 29 30 31 32 33 34 35 36 37 38 39 40 41 42 43 44 45 46 47 48 49 50
000
ASUS44 KOUN 200810
RWROK

WEATHER ROUNDUP FOR OKLAHOMA
NATIONAL WEATHER SERVICE NORMAN OK
300 AM CDT WED AUG 20 2014

NOTE: "FAIR" INDICATES FEW OR NO CLOUDS BELOW 12,000 FEET WITH NO
      SIGNIFICANT WEATHER AND/OR OBSTRUCTIONS TO VISIBILITY.

OKZ001>007-009>012-014-015-017-200900-
NORTHWEST OKLAHOMA AND THE PANHANDLE

CITY           SKY/WX    TMP DP  RH WIND       PRES   REMARKS
GAGE           CLEAR     76  64  66 S14       29.86F
ENID/WOODRING  CLEAR     72  68  88 S6        29.84S
$$

OKZ016-021>023-033>039-044-045-200900-
SOUTHWEST OKLAHOMA

CITY           SKY/WX    TMP DP  RH WIND       PRES   REMARKS
LAWTON/REGL    CLEAR     79  62  56 SE8       29.86S
LAWTON/FT SILL CLEAR     78  64  60 S6        29.85S
FREDERICK      CLEAR     77  62  59 S8        29.83F
CLINTON        CLEAR     78  64  61 S13       29.89F
HOBART         CLEAR     79  63  57 S12       29.87F
ALTUS AFB      CLEAR     76  65  68 SE7       29.85F
$$

OKZ018>020-024>031-200900-
CENTRAL OKLAHOMA

CITY           SKY/WX    TMP DP  RH WIND       PRES   REMARKS
OKLAHOMA CITY  PTCLDY    75  67  76 SE12      29.87S
OKC/WILEY POST CLEAR     78  66  66 S10       29.86F
OKC/TINKER AFB CLEAR     76  67  74 S13       29.88S
STILLWATER     CLEAR     75  68  78 SE8       29.86F
GUTHRIE        CLEAR     76  67  73 S7        29.86F
$$

OKZ008-013-054>072-200900-
NORTHEAST OKLAHOMA

CITY           SKY/WX    TMP DP  RH WIND       PRES   REMARKS
TULSA          CLEAR     80  71  74 S9        29.86S
TULSA/JONES    CLEAR     78  71  79 S6        29.87S
PONCA CITY     CLEAR     78  69  73 S5        29.85F
BARTLESVILLE   CLEAR     74  70  87 CALM      29.87F
MUSKOGEE       CLEAR     74  71  91 S6        29.90S
$$

OKZ032-040>043-046>053-073>077-200900-
SOUTH CENTRAL/SOUTHEAST OKLAHOMA

CITY           SKY/WX    TMP DP  RH WIND       PRES   REMARKS
ARDMORE/DWNTWN CLOUDY    77  64  65 S6        29.88S
MCALESTER      PTCLDY    77  68  73 S6        29.91R
$$




USA.gov is the U.S. government's official web portal to all federal, state and local government web resources and services.